Volver al catálogo

CZ-4 DEB

ActivoSSO
NORAD 37624·DEBRIS·🇨🇳 China

Lanzado Sep 3, 1990 desde Taiyuan Satellite Launch Center

Loading…

Próximos Pases (próximas 24 horas)

TLE

ActualizadoSource: Space-Track

Época: Sep 13, 2026, 04:10 UTC

1 37624U 90081DL  26256.17424947  .00000217  00000-0  15274-3 0  9991
2 37624  98.9213 235.9551 0012931 102.9749 317.0138 14.08176085667758

Sigue CZ-4 DEB en tiempo real con AllMySat

Download on the App Store